Regional Weather Roundup
Issued by NWS

Home | Current Version | Previous Version | Graphics & Text | Print | Product List | Glossary On
Versions: 1 2 3 4 5 6 7 8 9 10 11 12 13 14 15 16 17 18 19 20 21 22 23 24 25 26 27 28 29 30 31 32 33 34 35 36 37 38 39 40 41 42 43 44 45 46 47 48 49 50
000
ASUS43 KBIS 221601
RWRND

NORTH DAKOTA REGIONAL WEATHER ROUNDUP
NATIONAL WEATHER SERVICE BISMARCK ND
1100 AM CDT FRI MAY 22 2015

NOTE: "FAIR" INDICATES FEW OR NO CLOUDS BELOW 12,000 FEET WITH NO
SIGNIFICANT WEATHER AND/OR OBSTRUCTIONS TO VISIBILITY.


NDZ001>003-009>011-017-221700-
NORTHWEST NORTH DAKOTA

CITY           SKY/WX    TMP DP  RH WIND       PRES   REMARKS
WILLISTON      SUNNY     69  35  28 E7        30.12F
MINOT          SUNNY     71  37  28 E9        30.13S
MINOT AFB      SUNNY     74  38  27 S9        30.12S
$$

NDZ018>021-031>035-040>046-221700-
SOUTHWEST NORTH DAKOTA

CITY           SKY/WX    TMP DP  RH WIND       PRES   REMARKS
BISMARCK       SUNNY     68  39  34 VRB3      30.16S
DICKINSON      MOSUNNY   66  33  29 SE20      30.11F
GARRISON         N/A     66  35  31 VRB5      30.15S
HETTINGER ARPT MOSUNNY   63  38  39 SE16G26   30.13F
$$

NDZ004>008-012>016-024-026-027-054-221700-
NORTHEAST NORTH DAKOTA

CITY           SKY/WX    TMP DP  RH WIND       PRES   REMARKS
GRAND FORKS    SUNNY     68  37  32 S6        30.16F
GRND FRKS AFB  SUNNY     69  39  33 SW7       30.17F
DEVILS LAKE    SUNNY     66  39  37 SW7       30.16S
$$

NDZ022-023-025-028>030-036>039-047>053-221700-
SOUTHEAST NORTH DAKOTA

CITY           SKY/WX    TMP DP  RH WIND       PRES   REMARKS
FARGO          SUNNY     68  33  27 E3        30.19S
JAMESTOWN      SUNNY     67  41  38 S10       30.17F
$$



USA.gov is the U.S. government's official web portal to all federal, state and local government web resources and services.